Content
SEND FEEDBACK

Daily
Averages
Monthly
Summary
United States of America

RAPID CITY, SOUTH DAKOTA


Home > North America > United States > South Dakota
Elevation: 3162 feet     Latitude: 44 03N     Longitude: 103 04W

WEATHER
 
SELECT A DAY
Number of Records: 200,374;   Date Range: 1/1/95 - 8/12/14
 
SHARE

PRINT THIS DATA

[ ← Previous Day ]
WEATHER ALMANAC - NOVEMBER 1, 2013
[ Next Day → ]
[ °C ]   °F
Weather ElementAverageHighLow
Temperature42.4 °F51.1 °F (2:52 pm)30 °F (10:52 pm)
Dewpoint26.8 °F35.1 °F (1:52 am)21 °F (10:52 pm)
Humidity56 %76 % (1:52 am)35 % (1:52 pm)
Barometer30.02 in30.17 in (8:52 pm)29.81 in (1:52 am)
Wind Speed22 mph42.6 mph (12:52 pm)
Wind Gust56.4 mph (12:52 pm)
Weather ElementAverage
Visibility10 mi
Wind DirectionNW (317.8 °)

Weather ElementTotal
Precipitation---
Heating Degree Days24.5 (Base 65)
Averaged from 23 records on November 1, 2013
WEATHER CONDITIONS BREAKOUT
WIND DIRECTION BREAKOUT
WEATHER BY HOUR - NOVEMBER 1, 2013
[ °C ]   °F
Local TimeTemperatureDewpointHumidityBarometerVisibilityWind DirectionWind SpeedGust SpeedPrecipitationEventsConditions
1:52 AM42.1 °F35.1 °F76 %29.81 in10.0 miNNW (330°)26.5 mph33.4 mph0.00 inOvercast
2:52 AM41.0 °F34.0 °F76 %29.83 in10.0 miNW (320°)19.6 mphPartly Cloudy
3:52 AM42.1 °F33.1 °F70 %29.85 in10.0 miNNW (330°)18.4 mphMostly Cloudy
4:52 AM43.0 °F33.1 °F68 %29.88 in10.0 miNW (320°)32.2 mph39.1 mphClear
5:52 AM41.0 °F33.1 °F73 %29.91 in10.0 miNW (310°)21.9 mph31.1 mphPartly Cloudy
6:52 AM41.0 °F30.9 °F67 %29.93 in10.0 miWNW (300°)15.0 mphClear
7:52 AM42.1 °F28.9 °F60 %29.95 in10.0 miNW (310°)16.1 mphClear
8:52 AM45.0 °F28.9 °F53 %29.96 in10.0 miNW (310°)19.6 mph27.6 mphClear
9:52 AM48.0 °F28.0 °F46 %29.96 in10.0 miNW (310°)28.8 mph41.4 mphPartly Cloudy
10:52 AM50.0 °F26.1 °F39 %29.96 in10.0 miNW (320°)38.0 mph54.1 mphScattered Clouds
11:52 AM50.0 °F26.1 °F39 %29.99 in10.0 miNNW (330°)36.8 mph55.2 mphClear
12:52 PM48.9 °F24.1 °F38 %30.02 in10.0 miNNW (340°)42.6 mph56.4 mphClear
1:52 PM50.0 °F23.0 °F35 %30.02 in10.0 miNNW (330°)42.6 mph54.1 mphPartly Cloudy
2:52 PM51.1 °F24.1 °F35 %30.04 in10.0 miNNW (330°)33.4 mph46.0 mphScattered Clouds
3:52 PM50.0 °F24.1 °F36 %30.05 in10.0 miNNW (330°)33.4 mph44.9 mphClear
4:52 PM48.0 °F24.1 °F39 %30.09 in10.0 miNNW (330°)23.0 mph34.5 mphClear
5:52 PM42.1 °F25.0 °F51 %30.13 in10.0 miNNW (340°)11.5 mphClear
6:52 PM37.9 °F25.0 °F60 %30.15 in10.0 miNNW (330°)11.5 mphClear
7:52 PM35.1 °F24.1 °F64 %30.16 in10.0 miNW (320°)9.2 mphClear
8:52 PM30.9 °F21.9 °F69 %30.17 in10.0 miWNW (300°)6.9 mphClear
9:52 PM33.1 °F21.9 °F64 %30.17 in10.0 miWNW (290°)6.9 mphClear
10:52 PM30.0 °F21.0 °F69 %30.17 in10.0 miWNW (300°)6.9 mphClear
11:52 PM33.1 °F21.0 °F61 %30.17 in10.0 miWest (280°)4.6 mphClear
Hourly data recorded from KRAP, located miles away from Rapid City, South Dakota







STORIES FROM OUR PARTNERS